Regional Weather Roundup
Issued by NWS Albany, NY

Home | Current Version | Previous Version | Text Only | Print | Product List | Glossary On
Versions: 1 2 3 4 5 6 7 8 9 10 11 12 13 14 15 16 17 18 19 20 21 22 23 24 25 26 27 28 29 30 31 32 33 34 35 36 37 38 39 40 41 42 43 44 45 46 47 48 49 50
000
ASUS41 KALY 282210
RWRALY

NEW YORK STATE HOURLY WEATHER ROUNDUP
NATIONAL WEATHER SERVICE ALBANY NY
600 PM EDT SAT MAR 28 2015

NOTE: "FAIR" INDICATES FEW OR NO CLOUDS BELOW 12,000 FEET WITH NO
SIGNIFICANT WEATHER AND/OR NO OBSTRUCTIONS TO VISIBILITY.

NYZ032-033-038>043-046>054-057>066-NYZ062>081-282300-
EAST


CITY           SKY/WX    TMP DP  RH WIND       PRES   REMARKS
ALBANY         LGT SNOW  29  21  72 NW13      29.95R VSB 1   WCI  19
GLENS FALLS    CLOUDY    30  16  56 N12       29.96R WCI  20
POUGHKEEPSIE   LGT SNOW  33  20  58 N10       29.93R WCI  25
NEWBURGH       CLOUDY    34  23  64 NW9       29.92R WCI  26
MONTGOMERY     CLOUDY    31  17  56 NW15      29.92R WCI  20
WHITE PLAINS   CLOUDY    32  22  66 N10G20    29.88R WCI  24
ISLIP          LGT SNOW  32  27  81 NW14      29.88R WCI  22
NEW YORK CITY  PTSUNNY   36  24  62 N14       29.90R WCI  27
CENTRAL PARK   CLOUDY    37  23  56 N8        29.92R WCI  31
$$

NYZ005>009-017-018-044>046-055-056-282300-
CENTRAL


CITY           SKY/WX    TMP DP  RH WIND       PRES   REMARKS
FULTON         SUNNY     25   3  38 NW9       30.10R WCI  15
SYRACUSE       MOSUNNY   25   3  38 NW15      30.09R WCI  13
ROME           MOSUNNY   26   8  46 NW10      30.05R WCI  16
ELMIRA         MOSUNNY   25   4  40 N9G22     30.07R WCI  15
BINGHAMTON     CLOUDY    19   4  51 N15G26    29.98R WCI   5
MONTICELLO     PTSUNNY   25  12  58 N16G22    29.91R WCI  12
$$

NYZ026>034-041>043-282300-
NORTH


CITY           SKY/WX    TMP DP  RH WIND       PRES   REMARKS
WATERTOWN      SUNNY     29   1  30 N9        30.08R WCI  20
FORT DRUM      NOT AVBL
MASSENA        SUNNY     28   2  32 W9        30.06R WCI  19
SARANAC LAKE   PTSUNNY   20   5  52 VRB7      29.92R WCI  11
PLATTSBURGH    SUNNY     27   3  35 NW13      30.01R WCI  16
$$

NYZ001>004-010>016-019>021-282300-
WEST


CITY           SKY/WX    TMP DP  RH WIND       PRES   REMARKS
NIAGARA FALLS  MOSUNNY   28   6  39 NW10      30.16R WCI  19
BUFFALO        MOSUNNY   28   7  41 NW13      30.15R WCI  17
DUNKIRK        SUNNY     24  10  55 SW10      30.20R WCI  14
JAMESTOWN      SUNNY     19   3  49 NW12G20   30.11R WCI   7
WELLSVILLE     SUNNY     21   1  41 NW16G25   30.02R WCI   7
ROCHESTER      MOSUNNY   27   5  39 NW14      30.13R WCI  16
PENN YAN       SUNNY     24   5  44 NW12G23   30.09R WCI  13
$$

             KEY
       WCI = WIND CHILL INDEX
       VSB = VISIBILITY
       HX  = HEAT INDEX
$$


USA.gov is the U.S. government's official web portal to all federal, state and local government web resources and services.